{"data":{"norad_id":32767,"intl_designator":"2008-018A","name":"VINASAT-1","alt_names":[],"object_type":"PAYLOAD","status":"ACTIVE","operator":null,"country":"VTNM","launch_date":"2008-04-18","launch_site_code":"FRGUI","launch_vehicle":null,"mission":null,"orbit_class":"UNKNOWN","rcs_meters":12.5893,"size_class":null,"mass_kg":null,"dimensions":null,"purposes":["comms"],"wikipedia_slug":null,"has_3d_model":false,"image_url":null,"decayed_at":null,"tle_current":{"epoch":"2026-05-25T04:22:06.167712Z","epoch_age_seconds":53182,"freshness":"FRESH","line1":"1 32767U 08018A   26145.18201583 -.00000330  00000+0  00000+0 0  9993","line2":"2 32767   0.0119 356.8946 0001672  75.2483   8.1151  1.00272602 66350","mean_motion":1.00272602,"eccentricity":0.0001672,"inclination_deg":0.0119,"raan_deg":356.8946,"arg_perigee_deg":75.2483,"mean_anomaly_deg":8.1151,"bstar":0,"rev_number":6635,"period_min":1436.0852030149,"perigee_km":35779.316023098,"apogee_km":35793.415832877,"semimajor_km":42164.502927988,"source":"CELESTRAK","updated_at":"2026-05-25T13:38:13.857558Z"}}}